User: anonymous   Login
Location: DARK SKY Beskydy - Park tmavé oblohy, www.darkskybeskydy.cz
(49.4926°N, 18.5016°E)
Time: 11:22:53
(UTC+01:00)
Language:

Explorer 11/Cluster Stage 4 - Orbit

View from above orbital plane
View from above orbital plane
View from above satellite
View from above satellite

Ground track
Ground track

The orbit data is extracted from the following two-line orbital elements,

1 00107U 61013A   24052.50773915  .00005773  00000-0  73239-3 0  9998
2 00107  28.7869 132.4127 0525278 182.9073 176.8375 14.14232343156151
Epoch (UTC): 21 February 2024 12:11:08
Eccentricity: 0.0525278
inclination: 28.7869°
perigee height: 465 km
apogee height: 1224 km
right ascension of ascending node: 132.4127°
argument of perigee: 182.9073°
revolutions per day: 14.14232343
mean anomaly at epoch: 176.8375°
orbit number at epoch: 15615

The dashed part of the orbit path shows where the satellite is in the earth's shadow,  

DLR